Regional Weather Roundup
Issued by NWS

Home | Current Version | Previous Version | Text Only | Print | Product List | Glossary Off
Versions: 1 2 3 4 5 6 7 8 9 10 11 12 13 14 15 16 17 18 19 20 21 22 23 24 25 26 27 28 29 30 31 32 33 34 35 36 37 38 39 40 41 42 43 44 45 46 47 48 49 50

000
ASUS43 KOAX 230002
RWRNE

WEATHER ROUNDUP FOR NEBRASKA
NATIONAL WEATHER SERVICE OMAHA NE
700 PM CDT TUE APR 22 2014

NOTES: SATELLITE DATA IS BEING USED TO AUGMENT CLOUD COVER ABOVE
       12000 FEET.
       "FAIR" INDICATES FEW OR NO CLOUDS BELOW 12,000 FEET WITH NO
       SIGNIFICANT WEATHER AND/OR OBSTRUCTIONS TO VISIBILITY.

  * THESE STATIONS DO NOT REPORT WEATHER SUCH AS RAIN...SNOW OR FOG.

NEZ001>004-019>022-054>056-230100-
NEBRASKA PANHANDLE

CITY           SKY/WX    TMP DP  RH WIND       PRES   REMARKS
SCOTTSBLUFF    LGT RAIN  72  42  34 NW20G29   29.68R
6HR MIN TEMP:  72; 6HR MAX TEMP:  84; 6HR PCP: TRACE;

ALLIANCE       PTSUNNY   76  37  24 S17       29.66F
6HR MIN TEMP:  71; 6HR MAX TEMP:  80;

CHADRON        CLOUDY    69  54  58 N8        29.67F
6HR MIN TEMP:  63; 6HR MAX TEMP:  80; 6HR PCP:  0.03;

KIMBALL        MOSUNNY   74  29  18 S9        29.70F
SIDNEY         SUNNY     80  34  19 S17       29.70F
6HR MIN TEMP:  71; 6HR MAX TEMP:  82;

$$

NEZ057>060-069>072-079>082-230100-
SOUTHWEST NEBRASKA

CITY           SKY/WX    TMP DP  RH WIND       PRES   REMARKS
NORTH PLATTE   MOSUNNY   73  30  20 SE16G26   29.75F
6HR MIN TEMP:  67; 6HR MAX TEMP:  76;

IMPERIAL       MOSUNNY   78  42  27 SE28G39   29.72F
6HR MIN TEMP:  72; 6HR MAX TEMP:  81;

LEXINGTON      SUNNY     73  36  25 S25G32    29.81F
MCCOOK         SUNNY     75  37  25 SE28G38   29.78F
6HR MIN TEMP:  71; 6HR MAX TEMP:  78;

OGALLALA       SUNNY     78  40  25 S23G31    29.71F
$$

NEZ005>010-023>029-035>040-094-230100-
NORTH CENTRAL NEBRASKA

CITY           SKY/WX    TMP DP  RH WIND       PRES   REMARKS
VALENTINE      MOSUNNY   74  34  23 S25G35    29.72F
6HR MIN TEMP:  70; 6HR MAX TEMP:  78;

AINSWORTH      MOSUNNY   73  34  24 S22G33    29.76F
BROKEN BOW     SUNNY     69  34  27 S24G36    29.82F
6HR MIN TEMP:  64; 6HR MAX TEMP:  73;

O`NEILL        MOSUNNY   70  26  19 S22G29    29.85F
ORD            SUNNY     69  31  24 S22G30    29.84F
6HR MIN TEMP:  63; 6HR MAX TEMP:  72;

THEDFORD       SUNNY     73  34  23 S25G38    29.76F
$$

NEZ041-046>049-061>064-073>077-083>087-230100-
SOUTH CENTRAL NEBRASKA

CITY           SKY/WX    TMP DP  RH WIND       PRES   REMARKS
GRAND ISLAND   PTSUNNY   71  31  22 S17G30    29.90F
6HR MIN TEMP:  66; 6HR MAX TEMP:  73;

AURORA         PTSUNNY   71  32  24 S17G23    29.91F
HASTINGS       CLOUDY    71  29  21 S22G30    29.89F
6HR MIN TEMP:  65; 6HR MAX TEMP:  72;

HEBRON         MOSUNNY   69  28  21 SE15      29.93F
HOLDREGE       MOSUNNY   72  32  23 S23G31    29.84F
KEARNEY *      PTSUNNY   70  34  26 SE25G32   29.86F
YORK           CLOUDY    68  32  26 SE14      29.92F
$$

NEZ011>018-030>034-042>045-230100-
NORTHEAST NEBRASKA

CITY           SKY/WX    TMP DP  RH WIND       PRES   REMARKS
NORFOLK        CLOUDY    67  30  25 SE18G24   29.92F
6HR MIN TEMP:  64; 6HR MAX TEMP:  70;

ALBION         PTSUNNY   69  28  21 S18G29    29.90F
BLAIR          PTSUNNY   65  32  28 E10       29.97F
COLUMBUS *     CLOUDY    66  34  30 SE10      29.94S
FREMONT        CLOUDY    67  30  25 SE16      29.96F
TEKAMAH        PTSUNNY   68  30  24 SE16      29.96F
6HR MIN TEMP:  63; 6HR MAX TEMP:  72;

$$

NEZ050>053-065>068-078-088>093-230100-
SOUTHEAST NEBRASKA

CITY           SKY/WX    TMP DP  RH WIND       PRES   REMARKS
LINCOLN        PTSUNNY   69  32  25 SE12      29.95F
6HR MIN TEMP:  64; 6HR MAX TEMP:  73;

OMAHA EPPLEY   CLOUDY    67  32  27 E14       29.98F
6HR MIN TEMP:  62; 6HR MAX TEMP:  69;

BEATRICE       PTSUNNY   70  30  22 SE13      29.95F
FALLS CITY     MOSUNNY   66  33  29 SE8       29.98F
6HR MIN TEMP:  64; 6HR MAX TEMP:  71;

NEBRASKA CITY  PTSUNNY   68  29  24 SE9       29.98F
PLATTSMOUTH    PTSUNNY   67  28  23 E12       29.98F
$$

NEZ044-045-051>053-067-230100-
OMAHA AREA

CITY           SKY/WX    TMP DP  RH WIND       PRES   REMARKS
OMAHA EPPLEY   CLOUDY    67  32  27 E14       29.98F
6HR MIN TEMP:  62; 6HR MAX TEMP:  69;

BLAIR          PTSUNNY   65  32  28 E10       29.97F
FREMONT        CLOUDY    67  30  25 SE16      29.96F
MILLARD        PTSUNNY   66  33  29 SE9       29.97F
OFFUTT AFB     PTSUNNY   66  35  31 E10       29.97F
PLATTSMOUTH    PTSUNNY   67  28  23 E12       29.98F
WAHOO          CLOUDY    68  28  22 SE16      29.95F
$$



USA.gov is the U.S. government's official web portal to all federal, state and local government web resources and services.